Location: Lawrence
(38.9720°N, 95.2350°W)
Time: 22:31:11
(UTC-06:00)

Amateur Radio Satellites - All Passes

Search period start: 19 December 2014 22:01
Search period end: 20 December 2014 22:01
Location: Lawrence, 38.9720°N, 95.2350°W

Satellite Date Start Highest point End Downlink Frequencies (MHz)
Time Altitude Azimuth
BEESAT 2 19 Dec 22:11:58 22:15:49 34° 52° (NE) 22:19:36 435.950
UNISAT 6 19 Dec 22:15:37 22:19:30 25° 95° (E) 22:23:23 437.425
HO-68 19 Dec 22:17:03 22:20:50 15° 270° (W) 22:24:38 435.675
UWE-3 19 Dec 22:21:26 22:25:09 32° 263° (W) 22:28:59 435.000/436.395/437.385
FUNcube-1 19 Dec 22:22:57 22:26:48 37° 262° (W) 22:30:44 145.935
TISAT 1 19 Dec 22:25:33 22:26:03 10° 63° (ENE) 22:26:34 437.305
DUCHIFAT 1 19 Dec 22:27:59 22:31:04 19° 94° (E) 22:34:10 145.980
BUGSAT 1 19 Dec 22:32:00 22:34:35 16° 94° (E) 22:37:10 437.445
AISAT 19 Dec 22:36:33 22:40:48 46° 260° (W) 22:45:04 437.250
QB50P2 19 Dec 22:40:22 22:44:03 28° 96° (E) 22:47:43 145.880/145.840
DX 1 19 Dec 22:41:49 22:44:03 14° 268° (W) 22:46:17 434.975-435.025
CUBEBUG 1 19 Dec 22:45:46 22:50:08 77° 76° (ENE) 22:54:30 437.445
ANTELSAT 19 Dec 22:46:53 22:51:31 54° 100° (E) 22:56:09 437.575/2403.000
SO-50 19 Dec 22:46:59 22:50:29 21° 315° (NW) 22:54:04 436.795
POLYITAN 1 19 Dec 22:48:40 22:52:36 34° 98° (E) 22:56:31 437.675
50 SAT 19 Dec 22:48:48 22:52:31 38° 262° (W) 22:56:19 437.505
NANOSAT C BR1 19 Dec 22:51:43 22:55:40 36° 98° (E) 22:59:37 145.865
CUSAT 1 19 Dec 22:59:42 23:03:25 14° 279° (W) 23:07:15 437.405
HUMSAT D 19 Dec 23:04:31 23:07:41 21° 266° (W) 23:10:53 437.325/437.525
QB50P1 19 Dec 23:05:48 23:09:59 54° 100° (E) 23:14:09 145.935-145.965
BEESAT 3 19 Dec 23:10:56 23:14:58 50° 243° (WSW) 23:18:57 437.485
AIST 2 19 Dec 23:12:16 23:16:33 67° 57° (ENE) 23:20:46 435.215
TIGRISAT 19 Dec 23:23:01 23:27:40 63° 285° (WNW) 23:32:20 435.000
ESTCUBE 1 19 Dec 23:29:47 23:33:52 33° 263° (W) 23:37:59 437.505/2401.250
PCSat 19 Dec 23:30:59 23:36:26 83° 62° (ENE) 23:41:51 145.827
VELOX 1 19 Dec 23:33:12 23:35:01 12° 269° (W) 23:36:50 145.980
POPSAT HIP 1 19 Dec 23:34:20 23:38:35 69° 285° (WNW) 23:42:50 437.405
RS-15 19 Dec 23:41:13 23:49:14 23° 259° (W) 23:57:32 29.354- 29.394
YUBILEINY 19 Dec 23:42:25 23:50:46 52° 90° (E) 23:59:05 435.215
BEESAT 2 19 Dec 23:50:40 23:53:51 21° 249° (WSW) 23:57:00 435.950
UNISAT 6 19 Dec 23:52:07 23:56:15 31° 290° (WNW) 00:00:24 437.425
TISAT 1 19 Dec 23:57:07 00:01:18 68° 258° (WSW) 00:05:30 437.305
SPROUT 19 Dec 23:57:27 00:01:43 75° 258° (WSW) 00:06:00 437.525
DUCHIFAT 1 20 Dec 00:03:11 00:06:59 33° 289° (WNW) 00:10:47 145.980
O/OREOS (USA 219) 20 Dec 00:04:16 00:07:22 19° 101° (E) 00:10:29 437.305
BUGSAT 1 20 Dec 00:06:29 00:10:11 35° 288° (WNW) 00:13:54 437.445
QB50P2 20 Dec 00:16:26 00:19:50 24° 291° (WNW) 00:23:14 145.880/145.840
SWISSCUBE 20 Dec 00:19:32 00:23:48 33° 69° (ENE) 00:28:04 437.505
ITUPSAT 1 20 Dec 00:19:46 00:23:56 30° 69° (ENE) 00:28:06 437.325
ANTELSAT 20 Dec 00:25:04 00:27:51 16° 296° (WNW) 00:30:38 437.575/2403.000
POLYITAN 1 20 Dec 00:25:13 00:28:17 20° 293° (WNW) 00:31:22 437.675
NANOSAT C BR1 20 Dec 00:28:22 00:31:16 18° 293° (WNW) 00:34:10 145.865
AUBIESAT-1 20 Dec 00:29:44 00:33:42 26° 63° (ENE) 00:37:42 437.475
QB50P1 20 Dec 00:43:28 00:45:23 13° 296° (WNW) 00:47:19 145.935-145.965
BEESAT 20 Dec 00:44:14 00:48:54 54° 73° (ENE) 00:53:35 436.000
AIST 2 20 Dec 00:53:35 00:54:34 11° 253° (WSW) 00:55:33 435.215
M-CUBED/EXP-1 PRIME 20 Dec 00:53:55 00:58:32 48° 67° (ENE) 01:03:16 437.505
Oscar 19 20 Dec 01:15:14 01:19:52 32° 97° (E) 01:24:29 437.125/150
PCSat 20 Dec 01:17:13 01:19:03 12° 258° (WSW) 01:20:53 145.827
ITAMSAT 1 20 Dec 01:30:24 01:33:26 16° 92° (E) 01:36:27 435.822/435.867
YUBILEINY 20 Dec 01:40:11 01:47:49 33° 289° (WNW) 01:55:29 435.215
O/OREOS (USA 219) 20 Dec 01:42:21 01:46:28 37° 297° (WNW) 01:50:37 437.305
ITUPSAT 1 20 Dec 01:57:42 02:01:46 27° 264° (W) 02:05:51 437.325
SWISSCUBE 20 Dec 01:57:45 02:01:39 25° 265° (W) 02:05:35 437.505
STARS 20 Dec 01:59:21 02:03:29 43° 72° (ENE) 02:07:39 437.465
KKS-1 20 Dec 02:01:04 02:05:27 71° 75° (ENE) 02:09:53 437.445
AUBIESAT-1 20 Dec 02:04:00 02:08:24 36° 258° (WSW) 02:12:56 437.475
BEESAT 20 Dec 02:24:24 02:27:03 15° 268° (W) 02:29:43 436.000
M-CUBED/EXP-1 PRIME 20 Dec 02:30:20 02:33:43 19° 263° (W) 02:37:10 437.505
VERMONT LUNAR 20 Dec 02:46:19 02:49:06 22° 149° (SSE) 02:51:52 437.305
Oscar 19 20 Dec 02:54:39 02:59:06 29° 292° (WNW) 03:03:32 437.125/150
PHONESAT 2.4 20 Dec 02:56:54 02:59:25 18° 147° (SSE) 03:01:55 2401.200-2431.200
Gurwin Techsat 1B 20 Dec 02:58:46 03:04:05 71° 102° (ESE) 03:09:22 435.225
AIST 1 20 Dec 03:00:35 03:03:31 18° 73° (ENE) 03:06:26
ITAMSAT 1 20 Dec 03:08:12 03:13:16 58° 287° (WNW) 03:18:20 435.822/435.867
MOZHAYETS 4 20 Dec 03:08:18 03:09:48 11° 62° (ENE) 03:11:17
HORYU 2 20 Dec 03:24:09 03:28:33 48° 100° (E) 03:32:54 437.375
STARS 20 Dec 03:37:35 03:40:10 15° 267° (W) 03:42:46 437.465
AO-7 20 Dec 03:52:31 04:00:09 38° 98° (E) 04:07:42 29.400- 29.500
VERMONT LUNAR 20 Dec 04:23:36 04:27:07 80° 164° (SSE) 04:30:40 437.305
JAS-2 20 Dec 04:28:52 04:32:56 21° 91° (E) 04:36:47 435.910
PHONESAT 2.4 20 Dec 04:34:07 04:37:43 69° 162° (SSE) 04:41:20 2401.200-2431.200
AIST 1 20 Dec 04:37:25 04:41:16 33° 269° (W) 04:45:04
Gurwin Techsat 1B 20 Dec 04:40:34 04:43:25 15° 299° (WNW) 04:46:16 435.225
MOZHAYETS 4 20 Dec 04:41:44 04:46:22 74° 258° (WSW) 04:51:02
HORYU 2 20 Dec 05:02:04 05:04:47 16° 296° (WNW) 05:07:31 437.375
GONETS M04 20 Dec 05:36:50 05:45:29 62° 91° (E) 05:54:08
SO-50 20 Dec 05:37:56 05:42:23 34° 51° (NE) 05:46:51 436.795
PRISM 20 Dec 05:40:05 05:44:18 74° 75° (ENE) 05:48:32 437.425
AO-7 20 Dec 05:45:06 05:53:00 48° 296° (WNW) 06:00:52 29.400- 29.500
STRAND 1 20 Dec 05:58:41 06:03:34 47° 71° (ENE) 06:08:27 437.568
Cubesat XI-IV 20 Dec 05:58:46 06:03:23 30° 96° (E) 06:08:00 437.490
VERMONT LUNAR 20 Dec 06:02:02 06:05:33 66° 1° (N) 06:09:04 437.305
CUBESAT XI-V 20 Dec 06:03:05 06:07:40 58° 74° (ENE) 06:12:15 437.345
PHONESAT 2.4 20 Dec 06:12:52 06:16:28 67° 359° (N) 06:20:06 2401.200-2431.200
JAS-2 20 Dec 06:13:01 06:18:22 44° 291° (WNW) 06:23:18 435.910
CUTE-I 20 Dec 06:31:45 06:37:01 61° 101° (ESE) 06:42:16 437.470
SO-50 20 Dec 07:18:37 07:22:51 30° 247° (WSW) 07:27:05 436.795
GONETS M04 20 Dec 07:35:34 07:42:50 28° 291° (WNW) 07:50:10
Cubesat XI-IV 20 Dec 07:38:45 07:43:26 33° 292° (WNW) 07:48:06 437.490
STRAND 1 20 Dec 07:39:24 07:42:58 19° 267° (W) 07:46:32 437.568
VERMONT LUNAR 20 Dec 07:40:25 07:43:56 69° 198° (SSW) 07:47:27 437.305
CUBESAT XI-V 20 Dec 07:43:15 07:45:27 13° 269° (W) 07:47:38 437.345
PHONESAT 2.4 20 Dec 07:51:38 07:55:16 80° 196° (SSW) 07:58:54 2401.200-2431.200
HO-68 20 Dec 07:56:06 08:00:31 17° 91° (E) 08:04:54 435.675
CANX-2 20 Dec 08:12:06 08:14:32 15° 92° (E) 08:16:58 2200.000
CUTE-I 20 Dec 08:13:14 08:16:34 17° 298° (WNW) 08:19:54 437.470
BRITE-PL 20 Dec 08:21:59 08:25:46 23° 95° (E) 08:29:44 437.365/2234.400
COMPASS 1 20 Dec 08:34:55 08:37:46 17° 93° (E) 08:40:35 437.405
SEEDS 20 Dec 08:39:20 08:42:47 23° 95° (E) 08:46:13 437.485
CUTE 1.7 + AOD 2 20 Dec 08:41:53 08:45:40 29° 96° (E) 08:49:25 437.475
CUSAT 1 20 Dec 08:45:35 08:46:37 11° 79° (E) 08:47:42 437.405
GOMX 1 20 Dec 08:50:40 08:54:58 32° 97° (E) 08:59:31 467.674
MaSat-1 20 Dec 09:02:10 09:04:30 89° 294° (WNW) 09:06:45 437.345
UNISAT 6 20 Dec 09:14:33 09:17:37 19° 66° (ENE) 09:20:45 437.425
Oscar 11 20 Dec 09:16:53 09:20:21 23° 95° (E) 09:23:46 145.826/435.025
DOVE 4 20 Dec 09:17:58 09:22:35 46° 99° (E) 09:27:26 437.250
VERMONT LUNAR 20 Dec 09:19:27 09:21:53 18° 213° (SSW) 09:24:18 437.305
DUCHIFAT 1 20 Dec 09:21:05 09:23:08 14° 65° (ENE) 09:25:12 145.980
BUGSAT 1 20 Dec 09:23:21 09:24:21 11° 64° (ENE) 09:25:21 437.445
UKube-1 20 Dec 09:25:22 09:28:32 20° 95° (E) 09:31:42 .
PHONESAT 2.4 20 Dec 09:30:46 09:33:40 22° 211° (SSW) 09:36:33 2401.200-2431.200
DANDE 20 Dec 09:32:37 09:35:38 31° 89° (E) 09:39:30 436.750
QB50P2 20 Dec 09:33:16 09:36:15 19° 67° (ENE) 09:39:14 145.880/145.840
CUBEBUG 2 20 Dec 09:33:24 09:37:10 24° 95° (E) 09:40:58 437.445
AAUSAT CUBESAT 2 20 Dec 09:34:21 09:38:36 76° 102° (ESE) 09:42:49 437.432
POLYITAN 1 20 Dec 09:41:32 09:44:52 23° 68° (ENE) 09:48:13 437.675
HO-68 20 Dec 09:41:44 09:48:55 80° 288° (WNW) 09:56:02 435.675
NANOSAT C BR1 20 Dec 09:44:03 09:47:27 24° 69° (ENE) 09:50:52 145.865
ANTELSAT 20 Dec 09:45:13 09:49:18 40° 71° (ENE) 09:53:29 437.575/2403.000
ZACube-1 20 Dec 09:45:59 09:49:36 23° 95° (E) 09:53:14 437.345
CANX-2 20 Dec 09:46:34 09:50:41 44° 287° (WNW) 09:54:46 2200.000
CINEMA 3 20 Dec 09:46:34 09:51:14 54° 100° (E) 09:56:04 145.822/145.860
RS-15 20 Dec 09:46:35 09:49:14 11° 95° (E) 09:51:53 29.354- 29.394
VELOX 1 20 Dec 09:48:12 09:49:41 12° 91° (E) 09:51:10 145.980
YUBILEINY 20 Dec 09:54:43 10:01:21 24° 67° (ENE) 10:07:56 435.215
QB50P1 20 Dec 09:57:54 10:01:43 35° 71° (ENE) 10:05:33 145.935-145.965
BRITE-PL 20 Dec 10:00:00 10:04:17 36° 288° (WNW) 10:08:53 437.365/2234.400
COMPASS 1 20 Dec 10:09:41 10:13:36 36° 288° (WNW) 10:17:29 437.405
UWE-3 20 Dec 10:11:53 10:16:24 53° 100° (E) 10:20:57 435.000/436.395/437.385
FUNcube-1 20 Dec 10:12:17 10:16:38 44° 99° (E) 10:21:00 145.935
O/OREOS (USA 219) 20 Dec 10:14:05 10:18:07 31° 62° (ENE) 10:22:08 437.305
SEEDS 20 Dec 10:14:55 10:18:34 28° 290° (WNW) 10:22:11 437.485
CUTE 1.7 + AOD 2 20 Dec 10:18:03 10:21:26 23° 292° (WNW) 10:24:47 437.475
TIGRISAT 20 Dec 10:20:43 10:25:02 82° 258° (WSW) 10:29:30 435.000
CUSAT 1 20 Dec 10:25:25 10:28:46 40° 287° (WNW) 10:33:11 437.405
POPSAT HIP 1 20 Dec 10:26:07 10:30:18 75° 76° (ENE) 10:34:31 437.405
DELFI C3 20 Dec 10:28:22 10:32:27 62° 285° (WNW) 10:36:30 145.870
AISAT 20 Dec 10:28:58 10:33:02 35° 98° (E) 10:37:05 437.250
DX 1 20 Dec 10:29:00 10:33:20 75° 285° (WNW) 10:37:40 434.975-435.025
GOMX 1 20 Dec 10:29:01 10:32:57 26° 290° (WNW) 10:37:06 467.674
50 SAT 20 Dec 10:30:18 10:33:59 30° 97° (E) 10:37:39 437.505
CUBEBUG 1 20 Dec 10:37:31 10:40:05 15° 93° (E) 10:42:39 437.445
HUMSAT D 20 Dec 10:49:03 10:53:23 66° 101° (E) 10:57:42 437.325/437.525
UNISAT 6 20 Dec 10:50:05 10:54:07 37° 262° (W) 10:58:15 437.425
Oscar 11 20 Dec 10:52:42 10:56:30 30° 290° (WNW) 11:00:16 145.826/435.025
DUCHIFAT 1 20 Dec 10:54:29 10:58:33 50° 260° (W) 11:02:39 145.980
BUGSAT 1 20 Dec 10:55:17 10:59:20 60° 259° (W) 11:03:22 437.445
DOVE 4 20 Dec 10:56:41 11:00:02 19° 293° (WNW) 11:03:31 437.250
UKube-1 20 Dec 11:00:51 11:04:45 33° 290° (WNW) 11:08:38 .
QB50P2 20 Dec 11:08:05 11:11:55 34° 262° (W) 11:15:46 145.880/145.840
CUBEBUG 2 20 Dec 11:09:43 11:13:51 33° 289° (WNW) 11:18:03 437.445
POLYITAN 1 20 Dec 11:17:06 11:20:41 27° 264° (W) 11:24:17 437.675
DANDE 20 Dec 11:17:36 11:19:33 14° 298° (WNW) 11:21:44 436.750
NANOSAT C BR1 20 Dec 11:19:43 11:23:14 26° 264° (W) 11:26:45 145.865
ZACube-1 20 Dec 11:21:56 11:25:57 32° 289° (WNW) 11:30:01 437.345
VELOX 1 20 Dec 11:22:16 11:26:37 59° 286° (WNW) 11:30:58 145.980
ESTCUBE 1 20 Dec 11:23:26 11:27:51 55° 100° (E) 11:32:14 437.505/2401.250
ANTELSAT 20 Dec 11:23:27 11:26:17 17° 268° (W) 11:29:09 437.575/2403.000
CINEMA 3 20 Dec 11:25:08 11:28:01 16° 294° (WNW) 11:30:58 145.822/145.860
HO-68 20 Dec 11:31:48 11:35:29 15° 306° (NW) 11:39:11 435.675
QB50P1 20 Dec 11:34:50 11:37:42 18° 266° (W) 11:40:35 145.935-145.965
TISAT 1 20 Dec 11:44:09 11:47:19 20° 95° (E) 11:50:28 437.305
SPROUT 20 Dec 11:46:20 11:49:34 20° 94° (E) 11:52:47 437.525
RS-15 20 Dec 11:48:30 11:59:16 66° 114° (ESE) 12:10:02 29.354- 29.394
FUNcube-1 20 Dec 11:49:37 11:52:38 18° 294° (WNW) 11:55:39 145.935
UWE-3 20 Dec 11:49:49 11:52:30 16° 295° (WNW) 11:55:12 435.000/436.395/437.385
YUBILEINY 20 Dec 11:50:18 11:58:56 72° 267° (W) 12:07:33 435.215
O/OREOS (USA 219) 20 Dec 11:53:45 11:57:20 23° 258° (WSW) 12:00:55 437.305
50 SAT 20 Dec 12:05:55 12:09:00 21° 292° (WNW) 12:12:06 437.505
AISAT 20 Dec 12:06:09 12:09:25 21° 293° (WNW) 12:12:41 437.250
CUBEBUG 1 20 Dec 12:12:33 12:16:39 43° 288° (WNW) 12:20:44 437.445
HUMSAT D 20 Dec 12:27:18 12:28:36 11° 297° (WNW) 12:29:55 437.325/437.525
Oscar 19 20 Dec 12:30:54 12:35:41 41° 70° (ENE) 12:40:30 437.125/150
PCSat 20 Dec 12:32:06 12:34:00 12° 102° (ESE) 12:35:54 145.827
Gurwin Techsat 1B 20 Dec 12:42:38 12:44:46 13° 60° (ENE) 12:46:54 435.225
ITAMSAT 1 20 Dec 12:47:04 12:51:00 23° 65° (ENE) 12:54:56 435.822/435.867
BEESAT 20 Dec 12:47:19 12:50:05 15° 92° (E) 12:52:50 436.000
ISS 20 Dec 12:51:08 12:53:31 19° 131° (SE) 12:55:55 145.825
ESTCUBE 1 20 Dec 13:01:55 13:04:14 14° 296° (WNW) 13:06:33 437.505/2401.250
BEESAT 3 20 Dec 13:04:21 13:08:10 40° 115° (ESE) 13:12:04 437.485
AIST 2 20 Dec 13:10:40 13:13:41 19° 110° (ESE) 13:16:44 435.215
TISAT 1 20 Dec 13:19:27 13:23:10 31° 290° (WNW) 13:26:53 437.305
SPROUT 20 Dec 13:21:52 13:25:41 32° 289° (WNW) 13:29:29 437.525
BEESAT 2 20 Dec 13:43:40 13:47:46 82° 301° (WNW) 13:51:58 435.950
AUBIESAT-1 20 Dec 13:48:58 13:52:06 20° 97° (E) 13:55:03 437.475
YUBILEINY 20 Dec 13:51:40 13:54:01 11° 286° (WNW) 13:56:23 435.215
KKS-1 20 Dec 13:55:00 13:57:36 15° 93° (E) 14:00:12 437.445
SWISSCUBE 20 Dec 13:58:23 14:03:11 87° 283° (WNW) 14:07:55 437.505
ITUPSAT 1 20 Dec 13:58:45 14:03:33 86° 103° (ESE) 14:08:18 437.325
RS-15 20 Dec 14:02:23 14:12:18 38° 318° (NW) 14:22:22 29.354- 29.394
JUGNU 20 Dec 14:06:09 14:07:56 11° 181° (S) 14:09:44 437.505
Oscar 19 20 Dec 14:11:12 14:15:08 22° 266° (W) 14:19:07 437.125/150
PCSat 20 Dec 14:11:13 14:16:37 83° 298° (WNW) 14:22:05 145.827
M-CUBED/EXP-1 PRIME 20 Dec 14:13:43 14:17:52 44° 103° (ESE) 14:21:39 437.505
Gurwin Techsat 1B 20 Dec 14:18:40 14:23:58 84° 256° (WSW) 14:29:19 435.225
HORYU 2 20 Dec 14:21:38 14:25:46 39° 71° (ENE) 14:29:56 437.375
BEESAT 20 Dec 14:23:35 14:28:13 51° 288° (WNW) 14:32:48 436.000
ITAMSAT 1 20 Dec 14:25:17 14:30:11 43° 261° (W) 14:35:07 435.822/435.867
ISS 20 Dec 14:26:43 14:29:53 43° 327° (NNW) 14:33:04 145.825
JAS-2 20 Dec 14:41:38 14:44:30 13° 57° (ENE) 14:47:16 435.910
BEESAT 3 20 Dec 14:43:27 14:46:31 20° 313° (NW) 14:49:37 437.485
AIST 2 20 Dec 14:48:02 14:52:00 39° 307° (NW) 14:56:03 435.215
AO-7 20 Dec 14:50:04 14:57:52 47° 64° (ENE) 15:05:42 29.400- 29.500
SRMSAT 20 Dec 15:09:23 15:11:05 11° 178° (S) 15:12:46 437.500
AUBIESAT-1 20 Dec 15:23:18 15:27:09 31° 296° (WNW) 15:30:42 437.475
BEESAT 2 20 Dec 15:25:56 15:26:43 10° 320° (NW) 15:27:29 435.950
STARS 20 Dec 15:26:40 15:31:07 77° 285° (WNW) 15:35:33 437.465
KKS-1 20 Dec 15:30:11 15:34:27 46° 288° (WNW) 15:38:44 437.445
AIST 1 20 Dec 15:30:55 15:32:23 12° 84° (E) 15:33:50
ITUPSAT 1 20 Dec 15:40:04 15:40:42 10° 300° (WNW) 15:41:20 437.325
GONETS M04 20 Dec 15:49:17 15:56:35 28° 69° (ENE) 16:03:47
M-CUBED/EXP-1 PRIME 20 Dec 15:49:43 15:52:27 17° 301° (WNW) 15:55:02 437.505
PCSat 20 Dec 15:58:08 16:00:53 14° 317° (NW) 16:03:39 145.827
HORYU 2 20 Dec 15:59:30 16:02:34 18° 266° (W) 16:05:39 437.375
ISS 20 Dec 16:05:42 16:07:08 12° 345° (NNW) 16:08:35 145.825
CUTE-I 20 Dec 16:17:01 16:18:35 11° 59° (ENE) 16:20:09 437.470
JAS-2 20 Dec 16:20:50 16:28:28 68° 73° (ENE) 16:35:27 435.910
RS-15 20 Dec 16:22:27 16:29:11 17° 352° (N) 16:36:02 29.354- 29.394
MOZHAYETS 4 20 Dec 16:38:44 16:42:45 29° 96° (E) 16:46:43
AO-7 20 Dec 16:43:06 16:50:40 39° 261° (W) 16:58:20 29.400- 29.500
AIST 1 20 Dec 17:05:12 17:09:30 54° 280° (W) 17:13:47
Cubesat XI-IV 20 Dec 17:19:34 17:24:36 44° 70° (ENE) 17:29:38 437.490
PRISM 20 Dec 17:26:58 17:28:13 11° 91° (E) 17:29:28 437.425
GONETS M04 20 Dec 17:45:22 17:53:55 60° 269° (W) 18:02:22
CUTE-I 20 Dec 17:52:30 17:57:49 88° 76° (ENE) 18:03:10 437.470
CUBESAT XI-V 20 Dec 18:02:34 18:05:19 16° 92° (E) 18:08:04 437.345
JAS-2 20 Dec 18:08:02 18:13:47 23° 267° (W) 18:19:15 435.910
STRAND 1 20 Dec 18:11:32 18:14:52 17° 93° (E) 18:18:11 437.568
MOZHAYETS 4 20 Dec 18:16:02 18:19:51 26° 291° (WNW) 18:23:39
HO-68 20 Dec 18:26:09 18:29:03 13° 52° (NE) 18:31:57 435.675
MaSat-1 20 Dec 18:33:29 18:35:55 84° 68° (ENE) 18:38:29 437.345
RS-15 20 Dec 18:38:39 18:47:21 25° 28° (NNE) 18:56:16 29.354- 29.394
PRISM 20 Dec 19:00:01 19:04:04 53° 287° (WNW) 19:08:04 437.425
Cubesat XI-IV 20 Dec 19:00:49 19:04:51 22° 266° (W) 19:08:54 437.490
ISS 20 Dec 19:19:51 19:22:30 22° 26° (NNE) 19:25:08 145.825
CUSAT 1 20 Dec 19:21:17 19:27:23 24° 69° (ENE) 19:33:54 437.405
COMPASS 1 20 Dec 19:27:25 19:28:42 11° 64° (ENE) 19:30:00 437.405
SEEDS 20 Dec 19:31:43 19:34:12 15° 66° (ENE) 19:36:42 437.485
BRITE-PL 20 Dec 19:33:14 19:36:13 19° 68° (ENE) 19:39:12 437.365/2234.400
CUTE 1.7 + AOD 2 20 Dec 19:34:36 19:37:38 19° 67° (ENE) 19:40:41 437.475
CUBESAT XI-V 20 Dec 19:38:35 19:43:00 47° 287° (WNW) 19:47:23 437.345
STRAND 1 20 Dec 19:49:24 19:54:20 51° 288° (WNW) 19:59:14 437.568
SO-50 20 Dec 19:54:16 19:56:07 12° 107° (ESE) 19:57:59 436.795
GOMX 1 20 Dec 19:58:58 20:02:25 26° 70° (ENE) 20:05:54 467.674
HO-68 20 Dec 20:08:21 20:15:28 69° 71° (ENE) 20:22:36 435.675
Oscar 11 20 Dec 20:11:33 20:14:14 16° 66° (ENE) 20:16:56 145.826/435.025
DANDE 20 Dec 20:12:19 20:19:44 47° 76° (ENE) 20:27:59 436.750
UKube-1 20 Dec 20:20:16 20:22:53 16° 65° (ENE) 20:25:29 .
DOVE 4 20 Dec 20:23:34 20:27:20 35° 72° (ENE) 20:31:10 437.250
AAUSAT CUBESAT 2 20 Dec 20:24:29 20:28:27 43° 73° (ENE) 20:32:28 437.432
CUBEBUG 2 20 Dec 20:32:05 20:34:42 16° 66° (ENE) 20:37:21 437.445
CANX-2 20 Dec 20:38:07 20:42:22 73° 258° (WSW) 20:46:41 2200.000
ZACube-1 20 Dec 20:42:26 20:44:53 15° 65° (ENE) 20:47:21 437.345
CINEMA 3 20 Dec 20:48:03 20:51:54 39° 72° (ENE) 20:55:52 145.822/145.860
RS-15 20 Dec 20:50:52 21:02:10 71° 56° (NE) 21:13:57 29.354- 29.394
ISS 20 Dec 20:56:04 20:59:14 48° 223° (SW) 21:02:23 145.825
COMPASS 1 20 Dec 20:59:42 21:03:52 62° 259° (W) 21:08:05 437.405
CUSAT 1 20 Dec 21:03:10 21:11:00 76° 264° (W) 21:19:31 437.405
SEEDS 20 Dec 21:05:35 21:09:38 44° 261° (W) 21:13:44 437.485
FUNcube-1 20 Dec 21:07:48 21:11:23 28° 70° (ENE) 21:15:02 145.935
UWE-3 20 Dec 21:08:37 21:12:25 35° 71° (ENE) 21:16:18 435.000/436.395/437.385
CUTE 1.7 + AOD 2 20 Dec 21:09:24 21:13:18 34° 263° (W) 21:17:14 437.475
BRITE-PL 20 Dec 21:10:53 21:14:35 30° 263° (W) 21:18:15 437.365/2234.400
DELFI C3 20 Dec 21:15:29 21:19:34 69° 76° (ENE) 21:23:41 145.870
50 SAT 20 Dec 21:18:34 21:21:12 17° 67° (ENE) 21:23:52 437.505
PCSat 20 Dec 21:20:02 21:21:13 11° 39° (NE) 21:22:24 145.827
DX 1 20 Dec 21:23:21 21:27:41 82° 75° (ENE) 21:32:02 434.975-435.025
BEESAT 3 20 Dec 21:25:36 21:28:44 20° 47° (NE) 21:31:50 437.485
AISAT 20 Dec 21:26:23 21:30:09 28° 69° (ENE) 21:33:55 437.250
SO-50 20 Dec 21:31:32 21:36:01 66° 303° (WNW) 21:40:40 436.795
CUBEBUG 1 20 Dec 21:34:06 21:35:52 12° 64° (ENE) 21:37:38 437.445
AIST 2 20 Dec 21:34:08 21:35:56 12° 42° (NE) 21:37:43 435.215
GOMX 1 20 Dec 21:37:19 21:40:33 22° 265° (W) 21:43:48 467.674
HUMSAT D 20 Dec 21:40:26 21:44:16 38° 72° (ENE) 21:48:09 437.325/437.525
ANTELSAT 20 Dec 21:42:03 21:42:17 10° 89° (E) 21:42:30 437.575/2403.000
Oscar 11 20 Dec 21:45:55 21:50:02 43° 261° (W) 21:54:12 145.826/435.025
